User: anonymous   Login
Location: Kelshall
(52.0000°N, 0.0500°W)
Time: 15:37:36
(UTC+00:00)
Language:

ERS-1 Rocket - Orbit

View from above orbital plane
View from above orbital plane
View from above satellite
View from above satellite

Ground track
Ground track

The orbit data is extracted from the following two-line orbital elements,

1 21610U 91050F   21138.10839711  .00000031  00000-0  23345-4 0  9995
2 21610  98.4241 209.2946 0002799 358.2893  63.0958 14.40947233566170
Epoch (UTC): 18 May 2021 02:36:05
Eccentricity: 0.0002799
inclination: 98.4241°
perigee height: 753 km
apogee height: 757 km
right ascension of ascending node: 209.2946°
argument of perigee: 358.2893°
revolutions per day: 14.40947233
mean anomaly at epoch: 63.0958°
orbit number at epoch: 56617

The dashed part of the orbit path shows where the satellite is in the earth's shadow,  

DLR